Wind_Speed
71 71 72 73 75 77 78 79 79 78 78 77 76 75 74 74 74 75 78 79 81 81 82 84 87 88 90 92 96 98 100 102 103 103 105 107 109 111 113 114 116 117 119 120 120 121 121 120 119 119 117 114 110 109 107 106 105 101 94 91 93 94 94 95 96 95 94 96 96 95 96 96 96 96 95 93 91 91 93 93 90 88 88 88 85 82
70 70 71 74 77 78 79 79 79 78 78 79 78 77 76 75 74 75 77 78 80 81 82 84 86 87 89 90 94 96 98 100 102 102 104 106 108 110 112 113 115 117 118 119 120 121 122 121 120 120 121 120 116 112 110 109 108 106 100 93 92 95 95 94 96 97 95 96 98 97 97 98 98 98 98 97 95 94 95 97 97 95 93 92 90 88
70 70 73 75 76 77 78 79 79 79 79 80 80 79 78 77 76 77 78 78 80 82 83 85 86 87 88 89 92 94 97 98 100 102 103 105 107 109 111 113 115 116 118 119 120 121 122 122 122 121 122 122 122 118 113 112 111 111 109 102 94 92 94 95 95 97 98 97 98 100 100 100 100 100 100 99 98 98 98 98 98 98 97 96 95 94
69 71 73 75 75 76 78 79 79 80 80 80 81 81 80 79 80 81 81 81 82 82 83 85 87 87 88 89 90 92 94 96 98 100 102 104 106 108 110 112 114 116 117 119 120 121 122 123 123 123 123 123 124 124 119 115 114 115 115 114 108 100 94 94 95 97 99 99 99 101 102 102 101 101 102 102 102 100 99 99 98 97 98 98 97 96
69 70 73 75 76 77 78 79 80 80 81 81 82 82 82 82 83 84 84 84 84 83 83 85 87 87 87 88 89 91 93 94 96 98 100 102 105 107 109 111 114 115 117 118 120 121 122 123 124 124 125 125 125 127 125 121 117 117 119 119 119 113 104 97 96 97 100 101 101 103 104 104 104 103 103 104 104 103 101 100 99 98 98 98 99 98
69 71 72 74 76 77 78 79 80 81 81 82 83 83 84 85 86 86 87 87 87 85 84 85 87 86 87 88 89 91 92 93 94 96 98 101 103 106 108 110 112 114 116 118 119 121 122 123 124 125 125 126 127 129 130 127 122 120 121 122 121 121 117 107 100 99 101 103 102 103 105 105 105 106 105 105 105 105 104 103 101 100 99 99 100 100
69 71 73 74 76 77 78 79 81 82 82 82 83 84 86 87 88 88 89 89 89 88 87 88 87 85 87 89 90 90 92 92 93 95 96 99 102 104 106 108 111 113 115 117 119 120 122 123 124 125 125 126 128 130 131 131 128 124 123 125 124 123 124 120 111 104 103 104 104 104 105 106 106 107 107 107 106 106 106 106 104 102 101 101 101 101
69 71 72 74 75 76 78 79 81 82 82 82 82 85 88 88 90 91 91 92 92 91 91 90 89 87 86 88 89 90 91 92 92 93 94 97 99 102 104 107 109 112 114 116 118 120 122 123 124 125 126 126 127 130 133 133 132 129 126 126 127 125 124 126 123 115 108 107 108 108 108 107 107 108 109 110 110 108 108 108 107 106 104 103 103 103
69 71 72 74 75 76 77 79 81 82 82 81 83 87 88 89 91 92 93 94 94 95 94 91 91 90 87 86 89 91 91 92 92 92 93 95 97 99 102 105 107 110 112 114 117 119 121 123 124 125 126 127 127 129 132 135 135 133 131 129 130 128 125 126 128 125 118 112 111 111 111 110 110 110 111 112 114 113 112 110 110 109 108 107 106 105
69 71 72 73 75 76 78 79 81 81 81 82 84 87 89 90 92 93 95 95 97 98 95 92 93 94 91 87 89 91 91 92 92 93 94 94 96 98 100 102 105 108 110 113 115 118 120 122 124 125 126 127 128 129 131 134 136 136 135 133 132 132 131 128 127 129 128 122 116 113 113 113 114 113 113 114 115 116 116 115 113 112 112 111 110 109
70 72 72 73 75 76 78 79 80 81 81 82 85 87 89 91 92 94 96 97 99 98 94 93 96 98 95 91 90 91 91 92 93 95 96 96 96 98 100 101 104 106 109 111 114 116 118 121 123 125 126 127 129 130 131 133 135 136 137 137 136 135 136 134 130 128 130 130 125 120 115 114 115 117 116 116 116 117 118 118 117 115 115 114 113 112
71 72 73 74 75 76 78 79 81 82 82 83 85 87 89 91 93 95 96 98 99 96 93 95 99 101 99 94 92 93 93 93 94 95 97 97 97 98 100 101 103 105 107 109 112 114 116 119 121 123 125 127 128 130 131 133 135 136 137 138 139 138 138 139 136 132 131 133 133 129 124 118 116 118 119 119 118 118 118 119 119 118 117 116 116 116
71 72 73 74 75 76 78 79 81 82 83 84 85 87 89 92 93 95 96 97 97 95 95 98 101 103 101 96 95 96 95 95 96 96 97 98 99 99 100 101 102 104 105 107 110 112 115 117 119 122 124 126 128 129 131 133 134 136 137 138 140 142 141 142 141 138 135 134 135 135 132 127 121 118 120 121 121 120 119 119 120 120 120 119 118 118
70 72 73 74 76 77 79 80 81 83 84 85 86 88 89 91 92 94 95 96 96 96 97 101 104 105 102 99 98 98 97 97 98 98 98 99 100 101 101 102 103 104 105 106 108 110 113 115 117 120 122 125 127 129 131 133 134 136 137 138 140 142 144 144 145 144 140 137 137 137 136 134 130 123 120 121 122 123 122 120 119 120 121 122 122 121
67 70 71 74 75 77 79 81 82 83 84 86 87 89 90 91 92 93 94 96 97 97 99 102 105 105 101 99 99 99 100 101 100 100 100 100 101 102 103 103 104 105 106 107 108 109 111 113 116 118 120 123 125 127 130 132 133 135 137 138 139 141 144 145 146 146 145 142 140 140 139 138 137 133 128 123 122 124 124 123 122 120 120 122 123 124
64 67 69 72 74 75 78 80 82 84 85 87 88 89 90 91 92 93 94 96 97 99 101 102 103 102 101 101 101 102 102 103 103 103 103 103 103 103 103 104 105 106 107 107 108 109 111 112 114 117 119 121 123 126 128 130 133 135 136 138 139 140 142 144 146 147 147 145 144 143 143 141 140 140 138 132 127 125 126 126 124 123 122 122 123 124
62 64 67 69 71 74 76 78 81 83 86 87 88 89 90 91 93 94 95 97 99 101 101 101 102 101 101 103 103 104 104 105 106 106 106 106 105 105 105 105 106 106 107 108 109 110 111 112 114 116 118 120 122 124 127 129 131 133 136 137 139 140 141 143 145 147 148 148 146 146 146 145 143 143 144 141 136 131 128 127 127 125 125 125 125 125
61 63 65 67 69 71 74 76 79 82 84 87 88 89 91 93 95 96 97 98 99 100 99 99 101 102 103 103 103 105 107 107 108 108 109 109 109 108 108 107 107 107 108 109 110 111 112 112 114 115 117 119 121 123 125 127 130 132 134 136 138 140 141 142 144 146 148 149 149 148 148 148 147 146 146 146 144 139 134 131 130 129 127 126 126 126
60 61 63 65 67 69 72 75 77 79 82 85 86 88 91 93 95 97 99 99 99 100 99 99 101 103 104 104 103 106 108 109 110 110 111 112 112 112 111 111 110 110 110 110 110 111 112 113 114 115 116 118 120 121 123 125 128 130 132 134 136 138 140 141 143 145 147 149 150 150 150 150 150 149 148 148 148 146 142 137 134 132 132 131 129 127
59 60 62 65 67 68 71 73 75 77 80 82 84 87 90 92 95 97 99 99 99 101 100 100 103 104 103 103 104 106 108 110 112 113 113 114 114 115 115 114 114 113 113 112 112 112 113 114 115 115 116 118 119 120 122 124 126 128 130 132 134 137 139 140 142 143 145 147 149 151 151 152 152 151 150 150 150 150 148 144 139 136 135 135 134 132
58 59 61 64 67 68 70 72 73 75 78 81 83 85 87 90 93 96 98 99 101 102 101 101 103 103 102 104 105 106 108 111 113 114 115 116 116 117 117 117 117 116 116 115 114 114 114 115 116 116 117 118 119 120 121 123 125 126 128 130 132 134 137 139 141 142 144 146 148 150 151 153 154 154 153 152 152 152 151 149 146 142 139 138 138 137
57 58 59 63 66 68 69 71 73 74 77 79 81 83 86 88 91 94 96 98 100 102 101 102 102 101 102 104 106 106 108 111 113 114 116 117 118 118 119 119 119 119 119 118 118 117 117 117 117 117 118 119 120 120 121 122 124 125 127 129 131 133 135 137 139 141 143 145 147 148 150 152 154 155 155 154 154 153 153 153 151 148 145 143 141 140
57 58 59 61 65 67 69 70 72 74 76 78 80 82 84 86 89 92 94 95 98 100 100 102 103 101 101 104 106 106 108 111 113 115 116 117 119 120 120 121 121 122 122 121 121 120 120 119 119 119 119 120 121 121 122 123 124 125 126 128 130 131 133 135 137 139 141 143 145 147 149 151 153 155 156 157 156 155 155 155 155 153 151 148 146 144
56 57 59 61 64 66 68 69 71 73 75 78 80 81 83 86 88 91 93 94 96 98 99 102 103 100 99 103 106 107 108 110 112 115 116 118 119 120 121 122 123 123 124 124 124 124 123 123 122 121 121 121 122 122 123 124 124 126 127 128 129 131 132 134 136 138 140 142 144 146 148 150 152 154 156 157 158 158 158 157 157 157 155 153 151 149
56 56 59 61 63 65 67 69 71 73 75 77 79 81 83 85 87 89 91 93 95 95 97 100 101 98 98 101 104 106 108 110 112 114 116 118 119 120 121 122 123 124 125 126 126 126 126 126 125 125 124 124 124 124 124 125 125 126 127 128 129 131 132 134 135 137 139 141 143 145 147 149 151 152 154 156 158 159 159 159 159 159 158 158 156 154
56 57 59 60 62 64 66 68 70 72 75 77 78 81 82 85 87 88 90 93 93 92 94 99 100 97 97 99 102 105 107 109 111 113 115 117 119 120 122 123 124 125 126 127 128 128 129 128 128 128 128 127 127 126 126 126 127 127 128 129 130 131 132 133 135 136 138 140 141 143 145 148 150 151 153 155 157 158 159 160 160 161 160 160 160 159
54 56 58 60 61 63 66 67 69 71 74 76 79 81 82 84 87 88 90 92 91 92 93 96 97 98 97 98 100 103 106 108 110 113 115 117 119 120 122 123 124 125 126 127 128 129 130 131 131 131 131 130 130 129 129 129 129 129 129 130 131 131 132 133 134 136 137 139 141 142 144 146 148 150 152 154 155 157 158 159 160 161 162 162 162 162
52 54 56 58 60 62 64 66 68 70 72 74 77 80 83 85 87 88 90 91 92 93 92 92 96 99 98 98 99 101 104 107 109 112 114 116 118 120 121 123 124 126 127 128 129 130 131 132 133 133 133 133 133 132 132 132 131 131 131 132 132 132 133 134 134 136 137 138 140 142 143 145 147 149 151 153 155 156 158 159 160 160 161 162 163 163
50 51 54 56 58 60 62 64 66 68 70 73 76 79 82 85 87 88 89 91 93 93 90 90 95 98 97 98 99 101 103 105 108 111 113 115 117 119 121 122 124 125 127 128 129 130 131 132 133 134 134 135 135 135 135 134 134 134 134 134 134 134 134 135 135 136 137 138 139 141 142 144 146 148 149 151 153 155 157 158 159 160 161 162 163 163
49 50 52 55 56 59 61 62 64 66 68 71 74 78 81 84 86 87 88 89 92 92 90 91 95 96 96 97 98 100 103 105 107 109 111 113 116 118 120 122 124 125 126 128 129 130 131 132 133 134 135 136 136 136 137 137 137 137 136 136 136 136 136 136 136 137 137 138 139 140 141 143 145 146 148 150 152 154 155 157 159 160 161 161 162 163
48 49 51 53 55 58 60 61 63 65 66 69 73 77 79 81 84 86 87 89 90 91 90 92 94 94 95 97 99 100 102 104 106 108 110 111 113 116 118 120 123 125 126 128 129 130 131 132 133 134 135 136 137 138 138 138 139 138 139 139 139 139 138 138 138 138 138 139 139 140 141 142 143 145 147 149 150 152 154 156 157 159 160 161 162 162
48 48 50 51 54 57 59 61 62 64 66 69 73 76 77 79 80 83 86 88 90 90 90 91 91 91 94 98 99 99 100 101 103 105 108 110 112 114 116 118 121 123 126 127 129 130 131 132 133 135 136 136 137 138 139 140 140 140 140 141 141 141 141 141 141 140 140 140 141 141 141 142 143 144 146 147 149 151 152 154 156 157 159 160 161 162
47 48 49 51 52 55 58 60 61 64 67 70 73 75 76 77 78 80 82 85 88 89 89 89 89 90 93 96 98 98 98 99 100 102 105 108 111 113 115 117 119 122 124 126 128 129 131 132 133 135 136 137 138 139 139 140 141 142 142 142 142 143 143 143 143 143 143 143 143 143 143 143 144 144 145 146 148 149 151 153 154 156 157 159 160 161
48 49 50 51 52 54 57 59 60 63 68 70 72 72 73 75 76 77 80 83 85 87 87 87 88 89 91 94 97 98 99 99 100 101 103 105 108 110 113 115 118 120 122 124 126 128 130 132 133 135 136 137 138 139 140 140 141 142 143 143 144 144 144 144 144 144 145 145 145 145 144 145 145 145 146 146 147 148 150 151 153 155 156 157 159 160
49 50 51 52 53 54 56 58 60 63 68 70 70 69 70 72 74 75 77 81 83 84 84 86 87 89 90 92 94 95 97 99 100 101 102 103 105 107 109 111 114 118 120 122 124 126 128 130 132 134 136 137 138 139 140 141 142 142 143 144 145 145 146 146 146 146 146 146 147 147 147 147 146 147 147 147 148 148 149 150 152 153 155 156 157 158
50 51 52 52 53 54 56 59 61 63 67 69 68 68 69 71 73 74 76 79 80 80 81 83 85 87 89 90 92 93 94 96 97 99 101 102 103 105 106 108 110 113 116 119 122 124 126 128 130 133 135 137 138 139 140 141 142 143 144 145 145 146 146 147 147 148 148 148 148 148 148 148 149 149 149 149 149 149 150 151 151 152 153 154 156 157
49 51 52 52 53 54 55 58 61 64 67 68 67 67 69 70 72 73 75 77 77 76 77 79 81 83 86 88 90 92 93 93 95 96 97 99 101 103 104 106 107 109 112 115 118 121 124 126 128 130 133 135 137 138 139 140 141 142 144 145 146 146 147 147 148 148 149 149 150 150 150 150 150 150 151 151 151 151 151 151 152 152 153 154 154 156
49 51 52 52 52 54 55 57 60 63 65 66 66 67 68 69 70 71 72 76 76 74 73 75 77 79 81 84 86 88 90 92 93 93 94 95 97 99 101 103 105 107 109 111 113 117 120 123 126 129 131 133 134 136 137 139 140 141 143 144 145 146 147 147 148 148 149 150 150 151 151 151 151 151 151 152 152 153 153 153 153 153 154 154 154 155
49 51 52 52 52 53 54 56 59 62 63 63 64 66 67 67 68 68 69 72 74 73 72 72 73 75 77 79 81 84 86 88 90 91 91 92 94 95 97 99 101 104 106 108 110 113 116 119 122 125 128 130 132 134 135 136 138 139 141 143 144 145 146 147 148 148 149 150 150 150 151 151 152 152 152 153 153 154 154 154 155 155 155 155 155 155
49 51 52 52 52 53 54 55 59 62 62 61 62 64 65 66 66 66 66 68 70 71 70 70 70 71 73 75 77 79 81 84 86 88 89 90 91 92 94 96 98 100 102 104 107 109 112 115 117 120 123 126 129 131 132 134 135 137 139 141 142 144 145 146 147 148 148 149 149 150 151 151 151 152 153 153 154 155 155 155 156 156 156 156 156 156
49 51 52 52 52 54 53 53 57 61 61 60 60 61 62 63 64 64 64 64 66 67 67 67 67 68 69 71 73 75 77 79 82 84 86 87 88 89 91 92 94 96 98 100 102 105 107 110 113 116 119 121 124 127 129 131 133 134 136 138 140 142 143 144 145 146 147 147 148 149 150 151 151 151 152 153 154 155 155 156 156 156 156 157 156 157
49 51 52 52 52 53 53 53 54 57 59 59 59 58 59 60 61 61 61 61 62 63 64 64 65 65 65 67 69 71 73 75 78 81 82 84 85 86 87 89 90 92 94 96 98 100 103 106 109 112 114 117 119 121 124 126 129 131 134 136 137 139 140 142 143 144 145 146 147 148 149 150 150 151 151 152 153 154 155 156 156 157 157 156 156 156
49 50 52 51 52 52 53 52 53 54 55 57 57 57 56 56 57 57 58 58 58 59 60 61 61 62 62 63 64 66 68 71 73 76 78 80 81 82 83 85 86 88 90 92 94 96 98 101 104 107 109 111 114 116 118 121 124 127 130 132 134 136 138 139 140 141 143 144 145 146 147 148 149 150 151 151 152 153 154 155 156 156 157 157 156 156
50 51 52 51 52 52 52 52 52 51 52 54 55 54 54 54 54 54 54 55 55 55 56 57 57 58 59 59 60 62 63 66 68 71 73 75 77 78 79 81 82 84 86 88 90 92 95 97 100 102 104 106 108 111 113 115 118 121 124 127 130 132 134 136 137 139 140 141 142 144 145 146 147 148 149 150 151 152 152 154 155 156 156 156 156 156
51 52 52 52 52 53 53 52 51 50 49 51 52 52 52 51 51 51 51 51 51 52 53 53 54 54 55 56 57 58 59 61 63 66 68 70 72 73 75 77 78 80 82 84 86 88 91 93 95 97 99 101 103 105 108 110 112 115 118 121 124 127 130 132 134 136 137 138 139 141 142 143 144 146 146 147 148 149 150 152 153 154 155 155 155 155
51 52 53 52 52 53 53 53 52 50 48 49 49 49 50 49 49 49 49 48 48 49 50 50 51 52 52 53 54 55 56 57 59 61 63 65 67 69 71 73 75 77 78 80 82 84 86 88 90 92 94 95 97 99 102 104 107 110 113 115 118 121 124 126 129 132 134 135 136 138 139 140 142 143 144 145 145 146 147 149 150 151 152 153 153 154
52 52 54 53 53 53 52 52 52 50 48 48 48 47 47 47 47 47 46 46 46 46 46 47 48 49 50 50 51 52 53 54 55 57 59 61 63 65 67 70 71 73 75 76 78 80 82 83 85 87 89 90 91 93 96 98 101 104 108 111 113 116 118 121 123 126 128 130 132 134 136 137 138 140 141 142 143 144 145 146 147 148 149 150 151 151
52 53 54 54 54 53 52 52 51 50 48 47 47 46 46 45 45 45 44 44 44 44 44 44 46 47 48 48 48 49 50 50 52 54 56 57 59 61 64 66 68 69 71 72 74 76 78 79 81 82 84 85 86 88 90 93 95 98 102 105 108 110 113 115 117 120 123 125 127 129 131 133 135 136 137 139 140 141 142 143 144 144 145 146 147 148
53 53 54 54 54 53 52 51 51 49 47 46 45 45 45 44 43 43 43 42 42 42 42 43 43 44 45 46 47 47 47 48 49 51 53 54 56 58 60 62 64 66 67 69 71 72 74 76 77 79 80 81 82 84 86 88 90 93 96 99 102 104 107 109 112 114 116 118 121 123 125 127 129 131 133 135 136 137 138 139 140 140 141 142 143 144
53 53 54 54 54 53 53 52 51 50 47 46 45 44 43 43 42 42 41 41 41 41 41 41 41 42 43 44 45 46 46 46 47 49 50 52 54 56 58 59 61 62 64 66 68 69 71 73 74 75 76 77 78 80 82 83 85 88 91 93 96 98 100 103 106 108 110 112 114 117 119 121 123 125 127 129 131 133 134 135 136 136 137 139 140 141
53 54 54 55 54 53 52 51 51 50 48 46 45 44 42 41 40 40 40 40 40 39 39 39 40 40 41 42 43 44 44 45 46 48 49 50 52 54 55 57 58 60 62 64 65 67 68 70 71 73 73 74 75 76 78 80 82 83 85 88 90 92 95 97 100 103 105 106 108 110 112 115 117 119 121 123 125 127 128 129 131 132 133 135 136 137
Wind_Direction
241 240 240 239 238 237 236 234 232 231 231 232 232 232 232 233 234 234 234 234 233 232 232 232 231 231 231 232 232 232 231 231 230 229 229 229 229 229 228 228 228 228 227 227 227 228 228 226 225 224 223 223 224 225 226 227 227 228 229 231 231 231 232 233 234 235 235 234 235 236 236 236 235 236 237 237 237 238 240 242 242 241 241 242 242 243
241 240 240 239 239 238 237 236 234 233 232 232 232 232 232 232 234 235 235 234 234 233 232 232 232 231 231 231 232 232 231 231 231 230 229 229 229 229 228 228 228 228 228 228 228 228 228 228 226 225 224 224 224 225 226 226 227 226 226 227 229 229 229 229 231 232 232 233 234 235 236 236 236 237 237 238 239 240 240 241 242 243 243 245 245 245
240 240 239 239 239 239 239 238 236 234 233 233 233 232 232 232 233 234 234 234 234 233 232 232 232 232 231 231 231 232 231 231 231 230 229 229 229 228 228 228 228 228 228 228 228 228 228 228 227 226 225 224 225 225 225 226 226 226 225 224 225 227 227 227 229 230 231 232 233 234 235 236 236 237 238 238 239 240 241 242 243 244 245 246 247 248
241 239 239 240 239 239 239 239 238 236 234 233 233 233 232 233 233 233 234 234 234 234 233 232 232 231 231 231 231 232 232 231 231 231 230 229 229 228 228 228 228 228 228 228 228 228 228 228 228 227 226 225 225 225 225 226 226 226 225 224 225 226 227 227 229 230 230 231 233 233 234 235 236 237 238 239 239 239 241 244 245 245 246 247 248 249
241 240 240 240 239 239 239 239 238 237 236 234 233 233 233 233 234 234 234 234 234 234 234 234 233 232 232 232 232 231 232 232 231 231 231 230 229 229 229 228 228 228 228 228 228 228 228 228 228 228 226 225 225 225 225 225 226 226 225 225 226 226 227 228 229 230 230 230 232 233 233 235 236 237 238 239 239 240 241 243 245 246 246 247 249 249
240 241 240 240 239 239 239 238 238 238 237 236 235 234 233 233 234 234 234 234 234 234 234 234 234 233 232 233 233 232 232 232 231 231 231 230 230 230 229 229 229 228 228 228 228 228 228 228 228 228 227 226 225 225 226 226 226 226 226 225 226 227 227 228 229 230 230 229 230 231 233 234 235 236 237 238 239 240 241 242 243 244 245 246 248 249
240 240 240 240 240 239 239 238 238 238 237 236 236 235 234 234 234 234 235 235 234 234 234 234 234 233 233 233 233 233 233 232 232 232 231 231 230 230 230 229 229 229 229 229 229 229 229 229 228 229 228 227 226 225 226 226 226 226 226 226 226 227 228 229 229 229 229 229 230 231 232 234 235 236 237 238 239 239 240 241 242 243 244 245 246 248
240 240 239 240 240 240 239 239 239 238 237 236 236 237 236 234 234 234 235 235 235 234 234 234 234 233 233 234 234 234 234 233 233 233 232 232 232 231 231 230 230 229 229 229 229 229 229 229 229 229 229 228 227 226 226 227 227 226 226 226 226 227 229 229 229 229 229 229 230 231 233 234 235 237 238 239 239 239 240 240 242 243 243 243 244 246
241 240 239 239 240 240 240 239 239 239 238 237 236 237 237 236 235 235 235 235 235 235 234 234 235 234 232 234 236 235 234 234 233 233 233 233 232 232 232 231 231 230 230 229 229 229 229 230 230 229 229 229 229 227 226 227 228 227 227 226 226 227 228 229 230 230 230 230 230 231 232 234 236 237 238 239 239 239 240 240 241 242 243 243 243 243
241 240 240 239 239 240 240 240 240 239 238 237 237 237 237 237 236 236 235 235 235 235 234 234 236 235 232 232 234 236 235 234 234 233 233 232 232 232 232 232 231 231 231 230 230 230 230 230 230 230 230 230 229 229 228 227 228 229 228 227 227 227 228 229 230 231 231 230 230 231 232 233 235 237 238 238 239 240 240 240 241 242 242 243 242 242
241 240 239 239 239 239 240 240 240 240 239 238 237 237 237 237 237 237 236 236 235 235 235 235 236 236 234 231 232 235 235 235 235 234 233 232 232 232 232 232 231 231 231 231 230 230 230 230 230 230 230 230 230 230 229 229 229 229 229 228 228 228 228 229 230 231 232 232 231 230 231 232 233 235 237 238 238 239 240 241 241 241 241 242 242 242
242 241 240 239 239 238 239 240 240 240 240 239 238 237 237 238 238 238 237 237 237 235 235 235 236 237 235 233 232 234 235 235 235 234 234 233 232 232 233 232 232 232 231 231 231 230 230 231 231 231 231 231 231 231 230 230 230 230 230 229 229 228 229 229 230 231 232 233 232 231 231 232 233 234 235 236 237 238 239 240 241 241 241 241 242 242
242 241 240 239 239 239 239 239 240 240 240 239 239 238 238 238 238 238 238 238 238 237 235 235 236 237 236 234 233 233 234 235 236 236 235 234 233 232 233 233 232 232 232 232 231 231 231 231 231 231 231 231 231 231 231 231 231 231 230 230 230 229 229 230 230 231 232 233 233 233 232 232 233 233 234 235 236 236 236 238 239 240 241 241 241 242
243 242 241 240 239 239 239 239 239 239 240 240 239 239 238 238 238 238 239 239 238 238 236 236 236 237 236 234 233 234 234 235 236 237 236 235 235 234 233 233 233 232 232 232 232 232 231 231 231 231 231 231 232 232 232 232 232 231 231 231 230 230 230 230 231 231 232 232 233 234 234 233 232 232 233 234 235 236 236 236 237 239 240 241 241 241
243 243 242 241 240 239 239 239 239 239 239 239 240 240 239 239 239 238 239 239 239 238 237 237 237 237 237 236 235 234 234 235 235 236 237 236 236 235 234 234 233 233 233 232 232 232 232 232 231 231 232 232 232 232 232 232 232 232 232 232 232 231 231 231 231 232 232 232 233 233 234 234 233 232 232 233 234 235 236 236 236 237 238 240 241 241
244 243 243 242 242 241 240 240 240 240 240 239 239 240 240 240 240 239 238 238 238 238 238 237 238 238 237 237 236 235 234 235 235 236 236 237 237 236 236 235 234 234 234 233 233 232 232 232 232 232 232 232 232 232 232 232 233 233 233 233 233 232 232 232 232 232 232 233 233 233 233 234 234 233 233 233 234 235 235 236 237 237 238 239 240 241
245 244 243 243 243 242 241 241 241 240 240 240 240 240 240 240 240 240 239 238 238 238 238 238 239 238 237 237 236 236 235 235 236 236 236 237 237 237 237 236 235 235 234 234 234 233 233 232 232 232 232 232 232 232 232 233 233 233 233 233 233 233 233 232 232 232 233 233 233 233 234 234 234 234 234 234 235 235 235 235 236 237 238 239 239 240
247 246 245 244 243 243 243 242 242 242 241 241 241 241 241 240 240 240 240 239 239 239 238 238 239 239 238 237 237 237 237 236 235 236 236 236 237 237 237 237 236 236 235 235 235 234 234 233 233 233 233 233 232 232 233 233 233 233 233 234 234 234 234 233 233 233 233 233 233 234 234 234 235 234 234 235 235 235 235 235 236 236 237 238 239 240
248 248 247 246 245 244 244 243 243 243 243 243 242 241 242 241 241 241 241 240 240 240 239 238 238 238 238 238 237 237 238 237 236 236 236 236 237 237 237 237 237 236 236 235 235 235 235 234 234 234 234 233 233 233 233 233 233 234 234 234 234 234 234 234 234 234 234 234 234 234 234 235 235 235 235 235 235 236 236 236 236 236 237 237 238 240
249 249 248 248 247 246 245 244 244 244 244 244 243 243 243 243 242 242 242 242 241 241 240 238 238 238 238 238 237 237 238 238 238 237 237 236 236 237 237 237 237 237 237 236 236 235 235 235 235 234 234 234 234 234 234 234 234 234 234 235 235 235 235 235 234 234 234 234 234 234 235 235 235 236 236 235 235 236 236 236 236 236 236 237 238 239
251 249 249 249 249 248 247 246 246 245 245 245 244 244 244 244 244 243 243 243 242 242 241 240 239 239 239 238 238 237 237 238 238 238 238 237 237 237 237 237 237 237 237 237 237 236 236 236 236 235 235 234 234 234 234 234 234 234 235 235 235 235 235 235 235 235 235 235 235 235 235 235 236 236 237 237 236 236 236 237 237 236 236 237 237 238
253 252 250 250 250 250 249 249 248 247 247 246 246 245 245 245 245 245 244 244 244 243 242 242 241 240 239 239 239 238 237 238 238 238 239 239 238 238 237 237 238 238 238 238 237 237 237 236 236 236 236 236 235 235 235 235 235 235 235 235 235 236 236 236 236 236 235 235 236 236 236 236 236 237 237 238 238 238 237 237 237 238 237 237 237 238
254 253 252 252 252 252 251 250 250 249 249 249 248 247 247 246 246 246 246 245 245 245 244 243 242 240 240 240 240 239 238 238 238 238 238 239 239 239 238 238 238 238 238 238 238 238 237 237 237 236 236 236 236 236 235 235 235 235 235 235 235 235 236 236 236 236 236 236 236 236 236 236 237 237 237 238 238 239 239 239 239 238 238 238 238 239
256 255 254 253 253 253 253 253 252 251 251 250 250 250 249 248 248 247 247 246 246 246 245 245 244 242 240 241 241 240 240 240 239 239 239 239 239 239 239 239 238 238 238 238 238 238 238 238 237 237 237 237 237 237 236 236 235 235 235 235 235 236 236 236 236 236 236 236 236 236 237 237 237 237 238 238 238 239 239 240 240 240 240 239 239 239
259 257 256 254 254 254 254 254 254 254 253 252 252 251 251 251 250 249 249 248 247 247 247 247 246 244 241 241 241 241 240 240 240 240 240 239 239 239 239 240 239 239 239 239 239 239 239 238 238 238 238 237 237 237 237 237 237 236 236 236 236 236 236 236 236 236 236 237 237 237 237 237 237 238 238 238 239 239 240 240 240 241 241 241 241 240
260 259 258 257 256 256 255 254 254 254 255 255 254 253 253 252 252 251 251 250 249 248 248 249 249 247 244 242 242 241 240 240 240 240 241 240 240 240 239 239 240 240 240 239 239 239 239 239 239 238 238 238 238 237 237 237 237 237 237 236 236 236 236 236 237 237 237 237 237 237 237 237 237 238 238 238 239 239 240 240 241 241 241 241 242 242
261 260 259 258 257 257 257 256 255 255 255 256 256 256 255 254 254 253 253 252 251 249 248 249 250 249 247 244 243 242 242 241 240 240 240 240 240 240 240 240 240 240 240 240 240 240 239 239 239 239 239 239 238 238 238 237 237 237 237 237 237 237 237 237 237 237 237 237 237 237 237 238 238 238 238 238 239 239 240 240 241 241 242 242 242 243
263 262 261 260 258 257 257 257 257 257 256 256 257 257 256 256 255 255 255 254 253 252 250 249 249 249 248 246 245 244 243 242 241 240 240 240 240 240 240 240 240 240 240 240 240 240 240 240 240 240 240 239 239 239 239 238 238 238 238 238 238 237 237 237 237 237 237 238 238 238 238 238 238 238 238 239 239 239 240 240 241 241 242 242 243 243
268 266 264 263 261 260 259 258 258 257 257 257 257 257 257 257 256 256 256 255 255 254 253 251 250 250 249 248 246 245 244 244 243 242 241 240 240 240 240 240 240 241 240 240 240 240 240 240 240 240 240 240 240 240 240 239 239 239 239 238 238 238 238 238 238 238 238 238 238 238 238 238 239 239 239 239 239 240 240 241 241 242 242 242 243 243
271 270 269 268 266 265 263 261 260 259 258 258 257 257 257 258 258 258 257 256 256 256 255 254 253 252 251 250 248 247 246 245 244 243 243 242 241 241 240 240 241 241 241 241 241 241 241 241 241 241 241 241 241 241 240 240 240 240 239 239 239 239 239 239 238 238 238 238 238 238 239 239 239 239 239 239 240 240 240 241 241 242 242 243 243 243
274 272 271 271 270 269 267 266 265 263 262 261 260 258 258 258 259 259 259 259 258 257 256 255 254 254 254 253 251 248 247 246 245 245 244 244 243 242 241 241 241 241 241 241 241 241 241 241 241 241 241 241 241 241 241 241 241 241 240 240 240 240 239 239 239 239 239 239 239 239 239 239 239 239 240 240 240 240 240 241 241 242 242 243 243 244
277 275 274 272 271 271 270 269 268 267 266 265 263 262 261 260 260 260 260 260 260 259 258 257 256 256 255 255 253 252 250 248 247 246 245 245 244 243 243 242 242 241 241 241 241 241 241 241 241 241 241 241 241 241 241 241 241 241 241 241 241 240 240 240 240 240 240 239 239 239 239 239 239 240 240 240 240 241 241 241 241 242 242 243 243 244
280 279 277 275 274 273 272 271 271 270 269 267 265 265 264 264 264 263 262 262 262 262 261 260 259 257 256 255 255 255 253 252 250 248 247 246 245 244 244 243 243 242 242 242 242 242 242 241 241 241 241 241 241 241 241 241 241 241 241 241 241 241 241 241 241 240 240 240 240 240 240 239 240 240 240 240 240 240 241 241 241 242 242 243 243 244
285 283 281 279 278 276 275 275 274 273 271 269 268 267 267 267 266 266 265 264 263 263 263 262 260 259 257 256 255 255 254 254 252 251 249 247 246 245 244 244 244 243 243 242 242 242 242 242 242 242 242 241 241 241 241 241 241 241 241 241 241 241 241 241 241 241 241 241 241 241 240 240 240 240 240 240 240 241 241 241 241 242 242 243 243 244
289 287 286 284 282 280 279 278 277 275 274 273 272 271 271 270 268 267 266 264 263 262 262 261 260 259 258 257 256 255 254 253 253 252 251 250 248 247 246 245 244 244 244 244 244 243 242 242 242 242 242 242 242 242 242 241 241 241 241 241 241 241 241 241 242 242 241 241 241 241 241 241 241 241 241 241 241 241 241 241 241 242 242 242 243 243
291 289 288 286 285 284 283 282 280 278 277 276 276 275 274 273 271 269 267 265 264 262 261 260 260 260 259 258 258 256 255 254 253 252 252 251 250 249 248 247 245 245 244 244 244 244 244 244 243 243 243 243 242 242 242 242 242 242 242 242 242 241 241 241 241 242 242 242 242 242 241 241 241 242 242 241 241 241 241 242 242 242 242 242 243 243
292 291 289 288 287 286 285 284 282 281 279 279 279 278 276 275 273 272 271 269 267 265 264 263 261 260 259 259 258 258 257 256 254 253 252 251 251 250 249 248 247 246 245 244 244 244 244 244 244 244 244 243 243 243 243 243 242 242 242 242 242 242 242 242 242 242 242 242 242 242 242 242 242 242 242 242 242 242 242 242 242 242 243 243 243 243
294 293 291 290 289 288 287 285 284 282 281 281 281 280 278 276 275 274 273 272 271 268 266 264 263 261 260 259 259 258 258 257 256 255 254 252 252 251 250 249 248 247 246 246 245 244 244 244 244 244 244 244 244 244 244 243 243 243 243 243 243 243 243 243 242 242 242 242 242 242 242 242 242 242 242 242 242 243 243 243 243 243 243 243 243 243
297 295 294 293 292 291 289 288 286 284 283 283 283 282 280 279 277 275 274 273 272 271 268 266 264 263 261 260 259 259 258 258 257 257 256 254 253 252 251 250 249 248 248 247 246 245 244 244 244 244 244 244 245 245 244 244 244 244 244 244 244 244 244 244 243 243 243 243 243 243 243 243 242 242 243 243 243 243 243 243 243 243 243 243 243 244
300 298 297 296 295 294 292 292 290 288 286 286 284 283 282 281 279 277 275 274 273 272 271 268 266 264 262 260 259 258 258 257 257 257 256 255 254 253 252 251 251 250 249 248 247 246 246 245 244 244 244 244 244 245 245 245 245 244 244 245 245 245 245 245 244 244 244 244 244 244 244 244 243 243 243 243 243 244 244 244 244 244 244 244 244 244
302 301 299 299 298 297 295 294 293 291 290 288 286 284 283 282 280 279 277 276 274 273 272 270 268 266 264 262 260 259 258 257 256 256 255 255 254 253 252 251 251 250 250 249 248 247 247 246 246 245 244 244 244 244 244 245 245 245 245 245 245 245 245 245 245 245 245 245 245 245 245 245 244 244 244 244 244 244 244 245 245 245 244 244 244 244
305 303 302 302 301 299 298 297 295 294 293 291 289 287 285 283 282 281 279 277 275 274 273 271 269 267 265 263 261 260 258 257 256 256 255 255 254 253 252 252 251 251 250 250 249 248 247 247 246 246 245 245 245 244 244 244 244 245 245 245 245 245 246 246 246 246 246 246 245 245 245 245 245 245 245 245 245 245 245 245 245 246 246 245 245 245
307 306 305 304 304 302 301 300 298 296 295 293 291 289 287 285 284 282 281 279 277 275 273 272 270 268 266 264 262 260 259 258 257 257 256 256 255 255 254 253 252 251 251 250 250 249 248 248 247 247 246 246 245 245 245 245 244 245 245 245 246 246 246 246 246 246 246 246 246 246 246 246 246 246 245 245 245 245 245 246 246 246 246 246 246 246
310 309 308 307 306 305 304 303 301 299 298 295 294 292 290 288 286 284 282 280 279 277 275 272 271 269 267 265 263 261 260 258 257 257 256 256 256 255 255 254 253 253 252 251 251 250 249 249 248 247 247 246 246 246 246 245 245 245 245 245 245 246 246 246 246 246 246 246 246 247 247 247 247 246 246 246 246 246 246 246 246 246 247 247 247 247
312 312 311 311 310 309 308 307 305 303 301 299 297 295 293 291 289 287 284 282 280 278 276 274 272 270 268 267 265 262 260 259 258 257 257 257 256 256 255 255 254 253 253 252 251 251 250 250 249 249 248 247 247 246 246 246 246 246 246 246 246 246 246 246 246 246 247 247 247 247 247 247 247 247 247 247 247 246 246 246 246 247 247 247 247 247
315 315 313 313 313 312 312 310 308 306 305 302 299 298 296 294 291 289 287 284 282 279 277 276 274 271 269 267 266 264 262 260 259 258 257 257 256 256 255 255 254 254 253 253 252 251 251 251 250 250 249 248 248 247 247 246 246 246 246 246 246 246 246 246 246 246 246 247 247 247 247 247 247 247 247 247 247 247 247 247 247 247 247 247 247 248
317 317 316 316 316 315 314 313 311 310 308 306 303 300 298 296 294 292 289 287 284 281 279 277 275 273 271 269 267 265 264 262 261 259 258 257 257 256 256 255 255 254 254 254 253 253 252 252 251 251 250 250 249 248 248 247 246 246 246 246 246 246 246 246 246 246 246 246 247 247 247 247 247 247 248 248 248 247 247 247 247 247 248 248 248 248
319 319 319 318 318 317 317 316 314 312 311 309 306 304 301 299 297 294 292 289 287 284 281 278 276 275 273 271 269 267 265 263 262 261 259 258 257 257 256 255 255 255 255 254 254 254 253 253 252 252 251 251 250 249 248 248 247 247 246 246 247 246 246 246 246 246 247 247 247 247 247 247 247 247 248 248 248 248 248 248 248 248 248 248 248 248
321 321 321 320 320 320 319 318 316 315 313 311 309 307 305 302 300 297 294 292 289 286 284 281 278 276 274 273 271 269 267 265 264 262 261 260 259 258 257 256 256 256 256 255 255 255 254 254 253 253 252 251 251 250 249 248 248 247 247 247 247 247 247 247 247 247 247 247 247 247 247 247 247 247 247 248 248 248 248 248 248 248 248 249 249 249
323 323 322 322 322 322 322 321 319 317 316 314 311 309 307 305 302 300 297 294 291 289 286 283 280 278 276 274 272 271 270 268 266 264 263 261 260 259 259 258 257 257 256 256 255 255 255 255 254 254 253 252 252 251 250 249 249 248 248 248 247 247 247 247 247 247 247 247 247 247 247 247 247 248 248 248 248 248 248 248 248 249 249 249 249 249
324 324 325 324 324 324 324 323 322 320 318 317 315 312 310 307 305 302 299 297 294 291 288 285 283 280 278 276 274 273 272 270 268 266 265 263 262 261 260 259 259 258 257 256 256 256 255 255 255 255 254 254 253 252 251 251 250 249 248 248 248 248 247 247 247 247 247 247 247 247 247 248 248 248 248 248 248 248 248 248 248 248 248 249 249 249
Height
10401 10405 10410 10413 10413 10413 10415 10417 10422 10426 10430 10433 10437 10440 10443 10446 10448 10449 10450 10453 10456 10460 10463 10465 10467 10472 10476 10480 10484 10489 10496 10502 10509 10518 10525 10531 10536 10542 10548 10553 10559 10564 10571 10577 10584 10589 10595 10603 10610 10616 10622 10627 10632 10637 10642 10649 10655 10658 10659 10662 10667 10671 10675 10677 10680 10683 10688 10691 10694 10697 10699 10702 10704 10707 10709 10712 10714 10716 10718 10721 10723 10723 10725 10728 10731 10733
10392 10398 10401 10400 10400 10402 10405 10410 10415 10421 10424 10426 10429 10433 10436 10439 10440 10440 10442 10445 10446 10449 10453 10454 10457 10461 10466 10471 10474 10478 10485 10491 10497 10506 10514 10519 10525 10531 10536 10541 10547 10553 10559 10565 10571 10577 10583 10590 10597 10603 10609 10615 10621 10626 10631 10637 10642 10648 10651 10653 10656 10660 10664 10666 10669 10672 10676 10681 10684 10688 10689 10691 10695 10697 10699 10702 10706 10707 10708 10710 10712 10715 10716 10719 10722 10724
10384 10389 10389 10388 10391 10394 10397 10402 10406 10411 10415 10417 10420 10424 10428 10431 10431 10430 10431 10434 10435 10438 10442 10444 10447 10452 10457 10462 10465 10468 10473 10480 10486 10493 10501 10507 10512 10518 10524 10529 10534 10540 10546 10552 10558 10564 10570 10576 10583 10590 10596 10602 10608 10614 10619 10624 10629 10635 10640 10643 10646 10649 10652 10655 10658 10661 10665 10670 10674 10677 10678 10680 10684 10686 10688 10692 10695 10697 10697 10699 10703 10707 10709 10711 10714 10716
10374 10378 10378 10379 10384 10386 10388 10392 10396 10400 10405 10409 10412 10415 10419 10421 10420 10419 10421 10422 10424 10427 10432 10434 10437 10442 10447 10451 10456 10459 10463 10470 10476 10482 10489 10496 10501 10506 10512 10517 10522 10528 10534 10539 10545 10551 10557 10563 10569 10576 10582 10588 10594 10601 10606 10611 10616 10622 10627 10632 10635 10639 10642 10644 10647 10651 10654 10659 10663 10666 10668 10670 10673 10676 10678 10679 10682 10687 10691 10692 10695 10699 10702 10703 10705 10708
10365 10368 10369 10371 10374 10376 10379 10382 10385 10389 10394 10398 10402 10405 10409 10410 10408 10409 10411 10413 10415 10419 10424 10426 10427 10434 10440 10442 10447 10451 10454 10460 10467 10472 10478 10484 10490 10494 10500 10505 10510 10516 10521 10527 10532 10537 10543 10549 10555 10562 10568 10575 10580 10586 10592 10598 10603 10608 10613 10618 10623 10627 10631 10633 10636 10640 10644 10647 10651 10655 10658 10660 10662 10665 10667 10668 10672 10679 10683 10684 10686 10690 10693 10695 10696 10699
10356 10358 10359 10361 10364 10366 10369 10372 10375 10378 10383 10387 10391 10395 10398 10398 10398 10400 10402 10403 10405 10410 10415 10415 10417 10427 10433 10433 10437 10442 10445 10450 10456 10462 10467 10472 10477 10482 10488 10494 10498 10504 10510 10515 10520 10525 10530 10536 10542 10548 10554 10561 10567 10573 10578 10584 10590 10595 10600 10605 10610 10614 10619 10623 10625 10628 10633 10637 10640 10644 10647 10650 10652 10655 10657 10659 10663 10668 10672 10675 10677 10680 10683 10686 10687 10690
10346 10348 10349 10351 10353 10356 10359 10362 10364 10367 10372 10376 10382 10384 10385 10387 10389 10390 10392 10392 10395 10401 10404 10403 10408 10419 10423 10423 10429 10433 10436 10442 10446 10452 10456 10460 10465 10470 10476 10481 10487 10492 10498 10503 10508 10513 10518 10523 10529 10534 10540 10547 10553 10559 10564 10570 10576 10582 10587 10592 10596 10601 10606 10611 10615 10618 10621 10625 10629 10633 10636 10639 10642 10645 10647 10649 10652 10657 10661 10665 10668 10671 10674 10677 10678 10680
10336 10337 10340 10342 10344 10346 10350 10353 10354 10356 10361 10368 10373 10371 10371 10376 10377 10379 10381 10381 10385 10390 10392 10394 10400 10409 10413 10417 10421 10423 10427 10433 10438 10443 10447 10451 10455 10460 10464 10469 10475 10480 10486 10491 10496 10501 10505 10510 10515 10521 10527 10533 10539 10545 10551 10556 10562 10567 10573 10578 10583 10587 10592 10597 10602 10607 10610 10614 10618 10621 10625 10629 10632 10636 10638 10640 10642 10646 10650 10654 10657 10660 10664 10667 10670 10672
10325 10327 10330 10333 10335 10337 10340 10342 10343 10346 10352 10359 10361 10358 10360 10364 10366 10368 10370 10371 10375 10376 10381 10389 10393 10397 10406 10411 10410 10412 10417 10423 10428 10433 10437 10440 10444 10449 10453 10458 10463 10468 10473 10478 10483 10487 10492 10497 10502 10507 10513 10519 10525 10531 10537 10542 10547 10553 10559 10564 10569 10574 10578 10583 10588 10594 10598 10602 10605 10609 10613 10617 10621 10625 10628 10630 10631 10634 10639 10642 10646 10649 10653 10656 10660 10663
10315 10317 10319 10322 10325 10327 10329 10331 10333 10336 10342 10347 10348 10348 10350 10351 10354 10356 10357 10361 10361 10362 10375 10386 10383 10383 10394 10400 10399 10401 10407 10413 10418 10421 10424 10428 10431 10435 10440 10444 10449 10455 10460 10465 10470 10475 10479 10484 10489 10494 10500 10505 10511 10517 10522 10528 10533 10538 10544 10549 10555 10559 10564 10569 10574 10579 10585 10589 10593 10597 10601 10605 10609 10613 10617 10619 10621 10623 10626 10631 10634 10638 10642 10645 10649 10652
10304 10306 10309 10312 10315 10317 10319 10320 10323 10326 10330 10335 10336 10337 10339 10339 10342 10343 10346 10349 10347 10354 10372 10377 10370 10370 10378 10389 10392 10392 10398 10402 10405 10407 10411 10416 10419 10422 10426 10430 10435 10441 10446 10451 10457 10462 10467 10471 10476 10481 10487 10492 10497 10503 10508 10513 10519 10524 10529 10534 10539 10545 10549 10554 10560 10565 10570 10575 10580 10585 10589 10593 10596 10601 10604 10607 10610 10612 10615 10618 10622 10627 10630 10634 10637 10640
10293 10295 10299 10302 10303 10306 10308 10310 10313 10315 10319 10322 10324 10326 10327 10327 10330 10331 10334 10336 10337 10352 10366 10363 10357 10355 10363 10381 10387 10383 10386 10389 10390 10395 10399 10404 10408 10411 10414 10418 10423 10428 10432 10437 10443 10448 10453 10458 10463 10468 10473 10478 10483 10489 10494 10499 10504 10509 10514 10520 10525 10530 10535 10540 10545 10550 10555 10560 10565 10571 10576 10580 10583 10587 10591 10595 10598 10600 10603 10606 10610 10614 10618 10622 10626 10629
10283 10285 10289 10291 10293 10296 10298 10300 10302 10304 10307 10309 10311 10314 10314 10315 10318 10319 10323 10327 10332 10345 10352 10347 10343 10340 10351 10370 10374 10372 10377 10378 10379 10384 10388 10392 10396 10399 10402 10406 10411 10415 10420 10424 10429 10435 10440 10444 10449 10454 10459 10464 10469 10474 10479 10484 10489 10494 10500 10505 10510 10515 10520 10525 10530 10535 10541 10546 10550 10555 10561 10566 10571 10574 10578 10582 10585 10588 10591 10594 10597 10601 10605 10609 10613 10617
10272 10274 10278 10280 10282 10285 10286 10289 10290 10292 10295 10297 10299 10302 10302 10304 10307 10309 10313 10317 10323 10331 10334 10332 10327 10327 10342 10357 10361 10364 10369 10368 10369 10372 10375 10380 10383 10386 10390 10393 10397 10402 10406 10411 10415 10421 10426 10430 10435 10440 10445 10450 10455 10459 10464 10469 10474 10479 10484 10490 10495 10500 10505 10510 10515 10520 10525 10531 10536 10540 10545 10551 10556 10561 10565 10569 10573 10576 10579 10582 10585 10588 10591 10595 10600 10604
10262 10264 10267 10268 10271 10274 10275 10277 10279 10281 10284 10285 10287 10289 10291 10294 10295 10300 10304 10306 10310 10315 10316 10316 10313 10321 10337 10346 10350 10355 10356 10356 10358 10359 10362 10366 10370 10374 10378 10381 10385 10389 10393 10397 10402 10406 10411 10416 10421 10426 10430 10435 10440 10444 10449 10454 10459 10464 10469 10474 10479 10485 10490 10495 10499 10504 10510 10515 10521 10526 10530 10535 10540 10546 10551 10556 10560 10563 10567 10570 10573 10576 10579 10582 10586 10590
10252 10254 10257 10257 10260 10263 10264 10266 10268 10270 10271 10272 10275 10277 10281 10284 10284 10288 10291 10293 10296 10298 10299 10303 10306 10317 10329 10333 10336 10339 10342 10345 10346 10348 10351 10352 10356 10361 10365 10369 10373 10377 10380 10384 10388 10392 10397 10401 10406 10410 10415 10420 10425 10429 10434 10439 10443 10448 10453 10458 10463 10469 10474 10480 10484 10489 10494 10499 10505 10510 10515 10520 10524 10529 10535 10541 10546 10550 10553 10557 10561 10564 10567 10569 10573 10576
10244 10245 10246 10248 10250 10252 10254 10255 10256 10257 10258 10261 10264 10266 10270 10273 10271 10274 10276 10279 10281 10281 10287 10295 10299 10307 10314 10317 10322 10325 10329 10333 10333 10336 10339 10339 10343 10346 10350 10355 10359 10364 10368 10371 10375 10379 10383 10387 10392 10396 10400 10405 10410 10414 10419 10423 10428 10433 10437 10442 10448 10453 10459 10464 10469 10474 10478 10483 10489 10494 10500 10505 10510 10514 10518 10524 10530 10536 10540 10543 10547 10551 10554 10557 10560 10564
10235 10236 10238 10239 10240 10242 10243 10244 10245 10246 10247 10249 10252 10255 10258 10258 10258 10260 10261 10265 10267 10269 10280 10287 10288 10294 10298 10302 10311 10313 10313 10317 10319 10321 10324 10325 10329 10332 10336 10340 10345 10350 10354 10358 10362 10366 10370 10375 10378 10383 10387 10391 10395 10400 10404 10409 10413 10418 10422 10427 10432 10437 10443 10448 10453 10458 10463 10468 10473 10478 10484 10489 10494 10499 10503 10508 10513 10519 10525 10530 10533 10537 10540 10543 10547 10550
10227 10228 10229 10229 10231 10232 10232 10233 10234 10236 10236 10237 10240 10243 10243 10243 10246 10247 10247 10252 10257 10259 10268 10275 10274 10277 10281 10289 10299 10300 10298 10301 10304 10307 10310 10313 10315 10318 10322 10326 10330 10335 10339 10344 10348 10352 10356 10361 10365 10370 10374 10378 10382 10386 10390 10395 10399 10403 10407 10412 10417 10422 10427 10432 10438 10443 10447 10452 10457 10462 10468 10473 10478 10483 10488 10493 10497 10502 10508 10514 10519 10523 10526 10530 10533 10537
10219 10220 10220 10220 10220 10221 10221 10222 10225 10226 10226 10226 10228 10230 10231 10231 10233 10234 10235 10241 10245 10245 10252 10259 10258 10261 10269 10278 10283 10284 10285 10288 10290 10293 10295 10298 10301 10304 10307 10311 10315 10319 10324 10329 10333 10338 10342 10346 10350 10355 10359 10364 10368 10372 10377 10381 10385 10389 10393 10398 10402 10407 10412 10417 10422 10427 10432 10437 10442 10447 10452 10457 10462 10466 10471 10477 10482 10486 10491 10497 10503 10508 10512 10516 10519 10523
10210 10211 10212 10210 10209 10210 10211 10212 10214 10216 10215 10215 10217 10218 10219 10220 10220 10221 10224 10227 10228 10231 10237 10243 10244 10250 10259 10263 10265 10270 10273 10273 10274 10277 10279 10283 10287 10290 10293 10297 10300 10304 10309 10313 10318 10323 10328 10332 10336 10340 10344 10349 10353 10357 10362 10366 10370 10375 10379 10383 10387 10392 10397 10401 10406 10412 10417 10421 10426 10431 10436 10441 10446 10451 10455 10460 10466 10471 10475 10480 10486 10491 10497 10501 10504 10508
10202 10203 10204 10202 10199 10200 10201 10202 10203 10204 10204 10205 10206 10207 10208 10208 10207 10208 10210 10213 10213 10216 10224 10228 10231 10240 10247 10246 10249 10256 10258 10257 10259 10262 10265 10268 10272 10276 10279 10283 10286 10290 10294 10298 10303 10308 10312 10317 10321 10325 10330 10334 10338 10343 10347 10351 10355 10359 10364 10368 10372 10377 10381 10386 10391 10396 10401 10406 10411 10415 10420 10425 10430 10435 10439 10444 10449 10454 10459 10463 10468 10474 10479 10485 10489 10493
10193 10194 10195 10193 10191 10190 10191 10192 10193 10193 10194 10193 10193 10195 10196 10195 10195 10195 10197 10200 10200 10201 10209 10213 10213 10224 10234 10233 10234 10241 10242 10242 10245 10246 10249 10252 10255 10260 10264 10268 10272 10275 10278 10283 10287 10292 10296 10301 10306 10310 10314 10318 10323 10327 10332 10336 10340 10344 10348 10352 10356 10361 10365 10370 10375 10379 10384 10390 10394 10399 10403 10408 10413 10418 10423 10428 10433 10437 10442 10446 10451 10457 10462 10467 10472 10477
10184 10186 10185 10184 10182 10181 10181 10182 10182 10183 10183 10182 10182 10183 10183 10183 10183 10181 10183 10187 10186 10188 10195 10195 10195 10210 10222 10219 10219 10225 10227 10228 10230 10231 10234 10237 10240 10243 10247 10251 10256 10259 10263 10267 10271 10275 10280 10284 10289 10294 10298 10302 10307 10311 10316 10320 10324 10328 10332 10336 10340 10344 10349 10353 10358 10362 10367 10372 10377 10382 10387 10391 10396 10401 10406 10411 10416 10421 10425 10430 10434 10439 10444 10450 10455 10460
10175 10176 10175 10174 10174 10172 10171 10171 10171 10171 10171 10170 10171 10170 10169 10170 10169 10169 10172 10171 10172 10179 10182 10177 10180 10197 10207 10204 10204 10209 10212 10213 10215 10217 10219 10221 10224 10228 10231 10235 10239 10243 10248 10251 10255 10259 10263 10267 10272 10277 10281 10286 10290 10295 10299 10304 10308 10312 10316 10320 10324 10328 10332 10336 10341 10345 10350 10355 10360 10365 10369 10374 10379 10384 10389 10394 10399 10404 10408 10413 10418 10422 10426 10432 10437 10442
10165 10166 10164 10164 10164 10162 10162 10161 10161 10161 10159 10157 10158 10157 10157 10157 10155 10157 10158 10155 10161 10171 10169 10162 10167 10180 10189 10190 10191 10192 10194 10197 10199 10201 10203 10205 10208 10212 10215 10218 10222 10226 10230 10235 10238 10242 10246 10250 10255 10259 10264 10268 10273 10277 10282 10286 10291 10295 10299 10304 10308 10312 10316 10320 10324 10329 10333 10338 10343 10347 10352 10357 10362 10367 10372 10376 10382 10387 10391 10396 10401 10405 10410 10414 10419 10424
10156 10156 10154 10154 10154 10152 10151 10150 10150 10151 10149 10147 10146 10145 10144 10144 10142 10143 10143 10143 10148 10153 10153 10154 10156 10160 10168 10173 10175 10176 10177 10180 10183 10184 10186 10188 10191 10195 10198 10201 10205 10208 10212 10216 10221 10225 10229 10233 10237 10241 10246 10251 10255 10260 10264 10269 10273 10277 10282 10286 10291 10295 10300 10304 10308 10312 10317 10321 10326 10330 10335 10340 10345 10350 10355 10359 10364 10369 10374 10379 10384 10388 10392 10397 10402 10406
10147 10146 10145 10144 10143 10142 10141 10140 10139 10139 10139 10137 10135 10132 10131 10129 10129 10129 10129 10131 10131 10131 10139 10147 10142 10140 10149 10155 10157 10160 10161 10163 10165 10166 10168 10171 10174 10177 10180 10184 10188 10191 10195 10198 10203 10207 10211 10216 10220 10224 10229 10233 10238 10242 10247 10251 10256 10260 10264 10269 10273 10278 10282 10287 10291 10296 10300 10304 10308 10313 10318 10323 10328 10333 10338 10343 10347 10352 10356 10361 10366 10371 10375 10380 10385 10389
10138 10137 10135 10133 10132 10131 10130 10129 10130 10129 10128 10126 10123 10120 10117 10114 10114 10115 10116 10117 10114 10114 10127 10133 10125 10124 10134 10138 10140 10144 10145 10145 10147 10148 10151 10155 10158 10161 10164 10167 10171 10174 10178 10182 10186 10189 10193 10198 10203 10207 10212 10216 10221 10225 10229 10234 10238 10242 10247 10251 10256 10261 10265 10269 10274 10279 10283 10287 10291 10296 10301 10306 10311 10316 10321 10326 10330 10335 10339 10344 10348 10353 10358 10362 10367 10372
10129 10128 10125 10123 10122 10120 10118 10119 10119 10118 10117 10115 10111 10106 10104 10101 10101 10102 10104 10103 10100 10102 10112 10114 10109 10111 10118 10121 10124 10127 10127 10127 10129 10131 10134 10138 10142 10146 10148 10151 10154 10157 10160 10164 10168 10172 10176 10180 10184 10189 10194 10198 10203 10207 10212 10216 10220 10225 10229 10234 10238 10243 10247 10252 10257 10261 10266 10270 10274 10279 10284 10289 10294 10298 10303 10308 10313 10317 10322 10326 10331 10335 10340 10345 10350 10354
10119 10119 10117 10115 10112 10109 10107 10108 10107 10105 10105 10102 10097 10093 10092 10092 10091 10090 10089 10088 10086 10089 10096 10095 10093 10100 10104 10102 10102 10105 10107 10109 10112 10115 10118 10122 10126 10129 10131 10135 10138 10139 10143 10146 10150 10154 10158 10162 10166 10170 10174 10179 10184 10188 10193 10198 10202 10206 10211 10216 10220 10224 10229 10233 10238 10243 10248 10252 10257 10262 10267 10271 10276 10281 10286 10291 10295 10300 10304 10309 10313 10318 10322 10327 10332 10337
10110 10110 10108 10106 10104 10099 10097 10097 10096 10094 10092 10088 10083 10081 10080 10080 10081 10079 10076 10074 10072 10074 10078 10079 10081 10088 10089 10082 10080 10084 10089 10093 10097 10100 10103 10105 10108 10110 10113 10118 10120 10122 10125 10128 10131 10136 10140 10144 10148 10151 10155 10160 10164 10168 10173 10178 10183 10187 10191 10196 10200 10205 10210 10214 10219 10224 10229 10233 10238 10243 10249 10253 10258 10263 10268 10273 10278 10282 10287 10291 10296 10300 10305 10309 10314 10319
10102 10101 10099 10097 10094 10091 10087 10086 10085 10082 10078 10073 10069 10069 10068 10067 10068 10068 10065 10062 10059 10058 10061 10065 10068 10071 10071 10066 10065 10068 10072 10075 10079 10082 10085 10087 10089 10091 10095 10099 10101 10103 10107 10110 10114 10117 10121 10125 10128 10132 10135 10140 10144 10148 10153 10158 10163 10167 10172 10176 10181 10186 10190 10195 10200 10205 10210 10214 10219 10224 10230 10235 10239 10244 10249 10254 10259 10264 10268 10273 10278 10282 10287 10292 10297 10301
10091 10090 10088 10086 10084 10081 10077 10076 10074 10069 10063 10058 10057 10057 10058 10056 10055 10055 10052 10048 10045 10044 10046 10050 10050 10050 10051 10050 10049 10051 10053 10056 10059 10062 10065 10067 10070 10073 10078 10081 10083 10085 10088 10092 10096 10099 10102 10106 10109 10112 10116 10119 10124 10128 10133 10138 10143 10147 10151 10156 10161 10166 10171 10176 10181 10186 10191 10195 10200 10205 10211 10216 10221 10226 10230 10235 10240 10245 10249 10254 10259 10264 10269 10274 10279 10284
10081 10079 10077 10075 10073 10071 10068 10064 10062 10057 10049 10045 10045 10047 10046 10043 10041 10040 10037 10032 10029 10030 10031 10032 10031 10029 10031 10032 10031 10033 10036 10038 10040 10042 10045 10048 10051 10055 10059 10063 10066 10068 10071 10075 10078 10080 10084 10088 10090 10093 10096 10099 10103 10108 10113 10118 10123 10127 10131 10135 10140 10145 10150 10155 10161 10166 10172 10176 10180 10186 10192 10197 10202 10207 10212 10216 10221 10226 10231 10235 10240 10245 10250 10256 10261 10265
10072 10069 10067 10065 10062 10060 10057 10052 10048 10044 10038 10033 10033 10035 10032 10028 10025 10023 10020 10015 10014 10015 10016 10016 10015 10014 10014 10014 10014 10015 10018 10020 10022 10024 10026 10028 10032 10036 10039 10043 10048 10051 10054 10058 10060 10063 10066 10069 10072 10075 10077 10080 10084 10088 10093 10098 10103 10107 10111 10114 10119 10124 10129 10135 10140 10146 10151 10155 10159 10165 10172 10177 10183 10188 10192 10197 10203 10208 10212 10217 10222 10226 10231 10237 10243 10247
10064 10061 10057 10055 10053 10050 10047 10042 10036 10031 10026 10022 10022 10021 10018 10014 10010 10007 10005 9999 9997 10002 10003 10002 10001 10000 9999 9999 9998 9998 9999 10001 10003 10006 10008 10010 10013 10016 10019 10024 10028 10031 10035 10039 10042 10045 10047 10050 10053 10055 10058 10061 10065 10069 10074 10079 10083 10087 10091 10094 10098 10103 10109 10114 10120 10125 10130 10134 10139 10145 10151 10157 10163 10168 10173 10178 10183 10188 10193 10198 10203 10208 10212 10219 10224 10228
10055 10051 10048 10046 10043 10040 10036 10032 10026 10019 10014 10012 10010 10006 10002 10000 9996 9994 9991 9984 9981 9986 9989 9987 9985 9985 9984 9985 9984 9983 9984 9984 9985 9988 9992 9994 9996 9999 10001 10005 10008 10011 10015 10020 10023 10026 10029 10031 10034 10036 10038 10042 10045 10050 10056 10061 10065 10069 10072 10076 10079 10084 10088 10094 10100 10105 10109 10114 10119 10124 10130 10136 10143 10148 10153 10158 10163 10168 10173 10178 10183 10188 10193 10199 10205 10210
10046 10042 10038 10036 10033 10029 10025 10020 10014 10008 10004 10002 9999 9993 9988 9986 9983 9980 9978 9972 9967 9968 9971 9970 9970 9971 9970 9970 9970 9969 9969 9969 9969 9972 9975 9977 9980 9983 9984 9987 9990 9992 9995 10000 10003 10006 10009 10012 10015 10018 10020 10023 10027 10032 10037 10042 10047 10051 10054 10057 10061 10064 10068 10074 10080 10085 10089 10094 10100 10105 10110 10116 10123 10129 10134 10138 10143 10147 10152 10158 10163 10168 10174 10180 10186 10191
10038 10032 10028 10026 10022 10018 10015 10010 10002 9994 9992 9991 9987 9981 9976 9972 9969 9966 9965 9962 9956 9953 9954 9955 9956 9956 9955 9954 9955 9954 9954 9955 9954 9955 9957 9960 9963 9965 9967 9969 9971 9974 9977 9981 9984 9987 9990 9993 9996 9999 10002 10005 10009 10013 10018 10023 10028 10032 10035 10039 10041 10044 10049 10054 10060 10064 10070 10076 10081 10086 10091 10097 10103 10109 10115 10119 10123 10127 10132 10137 10143 10148 10153 10159 10166 10171
10029 10023 10018 10016 10012 10007 10004 10001 9993 9983 9979 9978 9974 9970 9965 9960 9956 9953 9952 9950 9946 9942 9941 9941 9941 9941 9941 9941 9941 9940 9940 9940 9939 9939 9940 9942 9945 9948 9950 9952 9954 9956 9959 9962 9966 9969 9972 9975 9978 9981 9984 9987 9992 9996 10000 10005 10009 10012 10016 10019 10022 10025 10030 10034 10038 10044 10050 10056 10061 10065 10070 10076 10082 10089 10095 10100 10104 10108 10112 10117 10122 10127 10132 10138 10145 10151
10021 10015 10009 10006 10003 9997 9993 9990 9984 9976 9969 9964 9961 9958 9954 9949 9945 9941 9939 9937 9934 9931 9929 9927 9927 9928 9928 9927 9927 9927 9927 9926 9926 9925 9925 9926 9929 9931 9933 9936 9938 9940 9942 9945 9948 9951 9955 9957 9959 9962 9965 9969 9974 9979 9983 9988 9991 9994 9997 9999 10002 10006 10011 10014 10019 10024 10031 10036 10040 10045 10050 10055 10061 10067 10073 10079 10084 10089 10093 10096 10100 10106 10111 10117 10124 10130
10012 10007 10001 9997 9993 9988 9983 9979 9974 9968 9961 9953 9949 9946 9942 9938 9934 9931 9928 9925 9923 9921 9918 9915 9914 9914 9914 9914 9914 9914 9913 9913 9913 9912 9912 9913 9914 9917 9919 9921 9923 9925 9927 9929 9931 9934 9937 9938 9940 9943 9947 9952 9957 9962 9966 9970 9973 9976 9978 9980 9983 9987 9991 9994 10000 10005 10010 10014 10019 10024 10029 10034 10039 10045 10052 10057 10062 10068 10074 10077 10079 10085 10091 10096 10102 10109
10002 9997 9992 9988 9983 9977 9973 9968 9963 9958 9952 9944 9938 9935 9932 9927 9923 9920 9917 9914 9912 9909 9907 9905 9903 9902 9902 9902 9902 9902 9902 9901 9901 9900 9900 9900 9901 9903 9905 9907 9909 9910 9912 9913 9915 9918 9919 9920 9922 9926 9930 9935 9940 9944 9949 9953 9956 9959 9960 9962 9966 9969 9972 9976 9981 9985 9989 9995 10000 10004 10008 10013 10019 10024 10030 10036 10042 10048 10053 10057 10059 10064 10070 10076 10082 10089
9994 9988 9982 9979 9974 9967 9962 9957 9952 9948 9943 9936 9929 9925 9921 9917 9913 9910 9907 9904 9902 9899 9896 9894 9893 9892 9891 9890 9890 9890 9890 9889 9889 9888 9888 9888 9889 9890 9892 9893 9894 9895 9896 9898 9900 9901 9903 9904 9907 9910 9913 9918 9923 9927 9931 9935 9938 9941 9943 9946 9949 9951 9954 9958 9961 9965 9969 9975 9980 9984 9989 9993 9998 10003 10008 10015 10021 10027 10033 10037 10040 10044 10049 10055 10062 10069
9986 9980 9973 9970 9965 9959 9952 9947 9941 9937 9933 9927 9921 9916 9911 9907 9904 9900 9897 9894 9892 9889 9887 9884 9883 9882 9881 9880 9879 9879 9879 9879 9878 9878 9878 9877 9877 9879 9879 9879 9880 9881 9882 9883 9885 9886 9888 9889 9892 9895 9897 9902 9907 9912 9914 9917 9921 9923 9925 9928 9930 9933 9936 9939 9942 9945 9950 9954 9959 9964 9969 9973 9978 9982 9987 9993 10000 10006 10012 10016 10021 10025 10030 10035 10042 10049
9977 9972 9966 9961 9957 9951 9945 9938 9932 9928 9923 9918 9912 9908 9903 9899 9895 9891 9888 9885 9883 9880 9878 9875 9873 9871 9870 9870 9869 9869 9869 9869 9868 9867 9867 9867 9867 9868 9867 9867 9867 9868 9869 9870 9871 9873 9874 9876 9878 9880 9882 9887 9892 9896 9898 9900 9904 9906 9908 9909 9911 9914 9918 9921 9923 9927 9930 9934 9940 9945 9949 9954 9958 9962 9967 9973 9978 9985 9991 9996 10000 10006 10011 10015 10021 10028
9971 9965 9959 9953 9948 9942 9937 9931 9924 9919 9915 9909 9904 9899 9895 9890 9887 9883 9879 9876 9874 9871 9869 9867 9865 9863 9861 9860 9859 9859 9859 9859 9858 9857 9857 9857 9857 9857 9856 9855 9855 9857 9858 9859 9859 9860 9861 9863 9864 9866 9869 9872 9876 9879 9881 9883 9887 9889 9890 9891 9893 9897 9900 9903 9906 9909 9912 9916 9922 9926 9930 9934 9939 9943 9948 9952 9957 9963 9969 9974 9980 9986 9992 9996 10000 10007
9963 9958 9952 9946 9940 9934 9929 9923 9916 9911 9907 9902 9897 9891 9887 9882 9879 9875 9871 9868 9865 9863 9860 9858 9856 9854 9852 9851 9850 9849 9850 9850 9849 9848 9847 9848 9847 9845 9845 9845 9846 9846 9847 9847 9847 9848 9849 9850 9851 9852 9855 9858 9861 9863 9865 9868 9871 9873 9874 9874 9877 9880 9883 9886 9889 9892 9895 9899 9904 9907 9911 9916 9920 9925 9929 9933 9937 9942 9949 9955 9961 9967 9973 9977 9980 9985
9957 9952 9946 9939 9933 9927 9921 9915 9908 9903 9898 9894 9889 9884 9880 9875 9871 9867 9864 9860 9858 9855 9853 9850 9848 9846 9844 9842 9841 9841 9841 9841 9840 9838 9838 9838 9836 9835 9835 9836 9836 9836 9836 9836 9836 9836 9837 9837 9838 9840 9842 9845 9847 9849 9850 9853 9855 9857 9858 9859 9862 9865 9868 9870 9872 9875 9879 9883 9886 9890 9894 9898 9902 9907 9911 9915 9918 9923 9929 9935 9942 9948 9953 9957 9960 9965
9951 9945 9939 9932 9926 9921 9915 9908 9902 9895 9890 9886 9881 9877 9873 9869 9865 9860 9857 9853 9850 9847 9845 9843 9840 9838 9836 9835 9833 9832 9832 9831 9830 9829 9829 9828 9827 9826 9826 9826 9825 9825 9825 9825 9825 9825 9826 9826 9826 9827 9829 9832 9834 9835 9836 9838 9840 9842 9844 9845 9847 9849 9852 9854 9856 9858 9862 9867 9870 9874 9878 9882 9885 9889 9893 9897 9901 9905 9910 9915 9922 9929 9934 9938 9940 9945